STARLINK-4389 (53475 NORAD) Tracking and Keplerian Element Data

This shows tracking and keplerian element data for the satellite.

Feedback or suggestion? Click here.




ElementValue
Catalog53475
NameSTARLINK-4389
Epoch Orbit1545
Epoch Day324.83607967
Epoch Year2022
RAAN83.877
Inclination97.656
Eccentricity4.84E-05
Argument of Perigee207.5606
Mean Anonmoly152.5592
Mean Motion15.01254581
Decay Rate1.119E-05
L11 53475U 22099L 22324.83607967 .00001119 00000+0 91692-4 0 9997
L22 53475 97.6560 83.8770 0000484 207.5606 152.5592 15.01254581 15450



Live tracking and technical data element details for STARLINK-4389 (NORAD 53475). STARLINK-4389 can be tracked NOW for your location showing map with azimuth and elevation plus other details from your city location.







IsCatalogInMostPopularTable: catalog: 53475, numindb: 4
Update: records affected: 1



GetName: 53475 STARLINK-4389

Hit Count: updated at: Thu, 08 Dec 2022 20:49:40 GMT